Simultaneous Nadir Overpasses (SNOs) Predictions

Prediction of SNOs between LANDSAT-8 and NOAA-19 Satellite Orbit:

Table of predicted SNOs for the next 14.0 days since TLE Epoch: 7/6/2018
Index Date (LANDSAT-8) Time (LANDSAT-8) Lat,Lon (LANDSAT-8) SZA (LANDSAT-8 ) Date (NOAA-19) Time (NOAA-19) Lat,Lon (NOAA-19) SZA (NOAA-19 ) Distance(km) Time Diff (sec)
1 07/07/2018 04:57:29 77.97, 120.94 55.72 07/07/2018 04:56:21 78.05, 118.29 55.65 61.94 68
2 07/07/2018 05:47:02 -77.71, -72.56 124.59 07/07/2018 05:47:13 -77.71, -72.58 124.59 0.94 11
3 07/09/2018 11:20:46 77.73, 24.10 55.69 07/09/2018 11:20:48 77.72, 24.03 55.67 2.07 2
4 07/11/2018 16:54:32 -77.73, 120.64 124.04 07/11/2018 16:54:22 -77.72, 120.72 124.04 2.16 10
5 07/13/2018 22:28:16 77.74,-142.74 56.29 07/13/2018 22:27:58 77.73,-142.68 56.29 1.66 18
6 07/13/2018 23:17:44 -77.72, 24.78 123.74 07/13/2018 23:18:56 -77.69, 24.82 123.74 3.09 72
7 07/16/2018 04:02:02 -77.74, -46.19 123.37 07/16/2018 04:01:31 -77.74, -46.03 123.36 3.78 31
8 07/16/2018 04:51:28 77.72, 121.39 56.62 07/16/2018 04:52:33 77.72, 121.32 56.64 1.68 65
9 07/18/2018 09:35:45 77.79, 50.60 57.07 07/18/2018 09:35:08 77.76, 50.56 57.03 3.31 37
10 07/18/2018 10:25:14 -77.72,-142.06 123.01 07/18/2018 10:26:05 -77.71,-141.95 122.99 2.67 51
11 07/20/2018 15:09:31 -77.78, 147.15 122.53 07/20/2018 15:08:40 -77.77, 147.18 122.55 1.51 51




NCC Satellite Simultaneous Nadir Overpasses (SNOs) Prediction Service
